Wind_Speed
32 29 26 22 19 21 21 21 18 17 16 14 11 10 8 11 9 10 9 7 8 9 9 8 7 7 9 9 9 8 7 6 4 6 7 8 6 0 1 2 3 5 4
34 31 28 24 21 20 22 21 20 17 15 15 14 13 11 11 9 8 8 9 6 9 8 7 6 7 9 10 11 10 10 10 7 5 6 4 2 1 1 2 4 4 5
35 35 32 29 25 23 22 22 21 20 18 17 17 14 11 9 8 5 7 9 6 7 7 6 5 7 8 10 10 11 13 13 13 9 7 7 3 3 4 5 5 6 7
29 33 34 30 28 25 22 22 22 21 20 18 16 14 11 9 8 4 6 8 5 4 5 4 5 6 7 10 11 14 15 16 15 12 10 8 7 6 4 3 4 3 5
27 29 31 31 28 26 23 21 22 22 21 18 16 15 13 10 9 5 6 9 4 3 3 2 4 6 7 9 11 14 16 16 14 15 13 11 13 8 6 5 4 4 2
23 26 27 30 30 28 25 21 21 22 22 20 18 16 14 12 9 5 5 8 5 3 0 2 4 6 7 8 10 13 15 18 20 18 17 19 20 16 8 5 5 3 3
22 22 22 26 29 28 26 23 21 20 21 21 20 18 16 13 9 8 6 7 7 3 2 3 4 7 7 6 9 11 14 16 20 23 22 21 20 18 14 5 4 5 6
21 20 17 20 25 28 28 26 24 22 22 21 21 20 17 15 10 9 7 7 10 5 4 4 4 6 6 6 7 10 12 14 18 20 21 21 20 17 16 11 2 3 7
23 20 14 16 20 24 26 26 25 25 24 23 21 21 19 15 12 10 9 8 11 8 6 5 4 5 6 6 7 8 10 12 14 17 18 20 19 17 16 11 4 3 6
23 22 19 18 20 23 23 23 24 25 24 24 23 21 19 16 13 13 13 11 11 9 9 7 7 6 7 7 7 7 8 10 12 14 16 19 20 18 20 18 14 8 3
27 22 21 16 17 19 20 21 22 23 24 24 23 23 20 17 15 15 14 11 9 8 9 9 7 6 8 7 6 7 7 9 11 13 13 13 17 22 20 18 18 18 11
19 17 18 18 16 18 20 22 23 22 22 23 24 25 22 19 17 17 13 11 10 8 7 9 8 7 10 9 5 6 7 9 11 12 9 10 12 18 18 16 19 19 17
7 3 6 12 12 16 20 23 25 26 25 25 25 26 24 22 20 19 16 14 13 12 10 9 8 9 10 9 7 5 7 8 9 9 8 8 11 16 18 15 20 20 18
3 15 16 13 4 9 16 19 25 27 27 26 28 24 24 23 23 23 24 21 18 17 15 14 11 10 10 9 8 5 5 7 7 9 11 11 10 12 17 15 22 24 24
12 1 18 23 16 12 26 20 21 27 27 27 27 24 22 24 25 25 19 21 20 18 15 16 16 14 12 11 10 8 6 6 6 7 12 10 9 11 15 14 21 20 23
8 19 22 21 22 30 33 33 31 29 26 25 21 19 17 14 14 22 18 16 15 17 15 16 16 15 14 13 12 10 9 7 7 5 10 10 10 10 12 14 14 15 15
2 4 5 11 14 37 46 32 39 27 23 20 20 19 19 15 16 18 22 20 17 20 18 17 14 15 14 14 14 13 11 9 8 7 8 10 11 12 11 11 12 15 16
5 3 13 14 5 8 46 40 30 25 19 15 16 21 21 20 9 13 20 23 24 25 23 18 17 15 14 15 16 14 13 11 10 9 7 10 10 11 11 11 9 10 11
5 2 5 6 11 25 24 14 14 13 14 20 20 21 28 22 17 22 11 13 24 24 23 22 19 18 15 14 15 15 14 12 11 11 10 9 11 11 12 11 12 11 11
4 1 3 4 6 5 2 2 4 8 11 13 13 16 16 20 22 20 23 34 26 22 25 25 22 20 17 15 15 16 16 15 13 12 12 10 9 11 11 12 12 14 11
6 1 1 1 2 2 4 7 8 12 13 16 17 15 14 9 8 12 25 39 24 21 32 26 25 21 18 16 15 17 17 16 14 13 13 11 11 9 12 13 14 14 13
7 8 6 3 3 1 3 5 6 10 10 10 13 14 18 19 13 10 14 24 27 23 28 26 22 21 17 15 14 15 17 17 17 15 14 13 11 11 10 12 13 16 17
4 3 5 1 1 2 2 1 1 3 4 4 2 4 5 4 4 2 5 10 19 22 21 22 24 20 18 16 14 14 14 14 14 15 15 15 13 13 12 12 13 15 18
7 4 3 4 4 5 8 8 11 11 10 9 6 7 7 7 5 2 2 3 6 9 15 18 17 19 21 19 17 15 16 16 15 15 15 15 15 13 13 14 14 15 17
12 8 7 7 8 9 10 13 13 13 14 14 12 9 8 10 11 10 9 8 9 10 11 7 13 16 20 19 18 18 16 14 15 17 18 17 18 15 14 14 15 16 17
18 17 14 13 13 13 14 14 15 15 16 16 15 13 11 11 12 12 15 12 14 13 13 15 18 11 13 16 18 19 19 17 14 17 19 19 20 20 19 17 16 17 18
Wind_Direction
227 227 226 227 232 229 232 239 241 247 253 264 277 299 309 325 325 341 339 347 2 8 11 19 17 21 19 19 25 21 8 2 338 313 308 305 322 296 334 336 321 338 4
229 229 229 229 230 233 228 232 237 240 246 257 272 285 282 301 302 328 326 319 359 10 7 17 19 28 23 33 34 34 35 26 26 11 349 349 5 267 231 289 325 305 287
232 229 229 231 230 234 232 224 230 235 241 253 269 274 274 281 282 302 314 328 324 4 358 18 33 38 39 44 47 48 41 40 42 39 31 20 355 291 292 292 305 290 272
228 229 228 228 230 232 237 228 223 230 238 246 256 258 265 267 273 275 300 314 303 341 357 25 55 55 63 57 57 56 50 53 47 41 35 27 13 338 326 316 306 304 266
226 222 224 225 227 229 233 231 221 223 229 235 242 251 258 260 265 246 280 300 271 332 6 56 78 77 73 66 63 60 56 57 53 42 38 35 32 31 44 66 46 25 349
230 225 220 221 223 224 226 229 221 219 224 228 235 243 252 255 260 233 270 298 260 301 348 125 113 100 87 68 61 58 56 52 50 42 35 36 36 39 60 80 56 28 38
226 219 219 219 220 221 223 225 221 219 224 230 234 238 245 249 249 220 245 275 250 270 201 149 140 121 102 78 63 60 51 48 44 41 36 36 34 32 32 43 43 32 44
223 215 216 221 219 220 222 225 224 223 227 232 236 236 236 244 241 216 232 256 245 229 200 163 146 130 120 100 68 61 50 43 40 41 36 35 31 32 33 26 81 61 41
215 208 200 215 211 214 220 225 225 225 227 230 235 234 232 239 232 212 221 238 244 228 203 181 156 142 132 112 83 60 55 41 38 40 36 34 36 33 35 32 53 136 58
222 216 203 216 221 216 217 221 224 229 232 233 235 233 231 232 223 212 210 224 240 226 209 194 176 158 144 120 96 69 56 44 35 35 34 34 40 44 46 50 56 90 90
215 207 196 210 219 229 228 225 228 229 231 231 234 233 228 225 219 211 206 218 241 231 222 205 188 166 152 134 104 80 62 54 45 37 34 36 40 44 57 53 58 67 68
223 222 201 201 216 224 224 227 231 230 228 227 227 228 222 219 211 210 203 213 221 214 218 207 193 177 161 146 130 86 67 61 52 44 41 39 44 48 53 59 59 67 69
67 41 223 211 229 240 234 229 230 228 227 225 226 224 218 216 210 203 204 212 212 199 203 210 195 179 171 163 148 111 87 71 64 62 55 53 56 60 60 69 74 74 78
26 0 355 333 275 284 277 244 228 228 220 220 222 222 218 217 213 212 206 209 201 198 193 203 197 187 178 171 164 137 116 95 86 78 64 68 70 74 71 82 91 87 86
55 277 308 330 303 300 325 278 240 225 223 222 228 229 223 220 223 224 219 213 213 211 204 196 193 193 189 178 171 160 159 122 97 79 77 88 87 85 84 91 99 95 92
64 20 353 322 272 273 303 303 244 227 223 224 227 236 240 230 229 223 211 211 216 220 216 202 198 191 191 182 175 164 165 155 130 111 90 99 107 107 107 108 111 102 100
84 81 72 25 321 264 278 288 249 223 211 217 223 223 226 231 221 210 208 206 212 217 215 207 196 196 188 185 177 162 163 172 151 138 115 104 119 126 121 121 122 116 116
30 290 245 222 184 21 284 236 228 230 221 218 260 249 229 220 207 217 208 209 206 213 217 205 199 189 190 187 183 173 167 167 168 151 141 116 125 133 138 134 135 137 129
7 326 260 230 212 226 247 252 245 242 232 216 227 239 247 207 122 81 77 252 224 223 222 206 196 194 191 185 188 179 171 168 173 164 153 139 130 142 150 149 151 150 144
360 35 291 260 239 220 162 172 172 174 177 161 155 164 170 183 198 207 245 224 217 218 224 207 198 192 190 191 191 187 179 175 178 176 168 160 143 148 156 164 162 159 156
287 359 62 224 280 270 215 218 193 188 184 171 179 194 207 227 228 246 242 214 209 219 213 210 198 192 192 196 197 195 188 180 182 189 184 178 165 161 164 167 175 171 169
281 269 274 293 327 330 218 209 214 218 212 228 238 244 251 270 264 262 234 209 224 234 225 219 193 196 196 200 205 199 196 189 184 193 197 194 190 182 179 174 178 184 180
9 339 281 271 17 42 13 39 240 233 224 243 308 355 1 293 248 130 196 228 235 241 230 220 187 185 184 187 194 189 192 196 192 196 205 208 204 201 193 191 183 185 191
43 65 110 113 102 106 96 93 85 85 88 91 92 106 119 136 142 97 175 196 217 224 217 214 173 174 178 181 183 188 187 192 197 199 206 219 220 212 209 201 200 192 192
56 62 79 99 109 114 111 108 101 99 93 84 85 95 119 123 124 130 137 166 166 167 181 239 250 186 184 189 196 198 201 207 209 215 214 216 225 227 226 215 209 207 201
67 70 73 82 98 103 107 102 99 91 82 82 85 91 101 113 125 141 145 149 150 156 166 173 189 192 206 211 212 220 214 218 216 216 225 224 222 222 223 224 222 215 215
Height
1536 1540 1543 1546 1549 1552 1555 1558 1560 1562 1564 1564 1563 1563 1562 1561 1558 1556 1555 1553 1551 1550 1547 1545 1544 1542 1539 1537 1535 1533 1532 1530 1529 1527 1525 1524 1523 1522 1521 1521 1521 1520 1519
1530 1535 1539 1543 1545 1547 1549 1553 1556 1558 1561 1562 1561 1560 1560 1559 1557 1555 1554 1552 1550 1549 1547 1546 1545 1542 1540 1538 1537 1534 1532 1530 1528 1525 1523 1523 1522 1521 1521 1520 1520 1519 1518
1524 1529 1533 1538 1540 1542 1544 1548 1551 1554 1556 1558 1558 1558 1557 1556 1555 1554 1553 1551 1550 1549 1547 1546 1545 1543 1542 1540 1538 1536 1534 1531 1528 1526 1524 1521 1520 1520 1520 1519 1518 1517 1517
1517 1522 1527 1531 1535 1538 1541 1543 1545 1549 1551 1553 1554 1555 1554 1553 1552 1552 1551 1550 1549 1549 1548 1546 1546 1544 1543 1541 1539 1536 1533 1531 1529 1528 1525 1522 1520 1519 1518 1518 1517 1516 1516
1510 1514 1519 1525 1530 1534 1537 1538 1540 1543 1545 1548 1550 1551 1550 1550 1549 1550 1550 1549 1547 1549 1548 1547 1546 1545 1544 1542 1540 1537 1535 1533 1531 1529 1526 1524 1520 1517 1515 1515 1515 1515 1514
1505 1508 1513 1518 1524 1528 1532 1535 1536 1538 1540 1542 1545 1547 1547 1547 1547 1548 1548 1548 1547 1547 1546 1545 1545 1545 1544 1542 1541 1540 1538 1536 1533 1530 1526 1522 1519 1516 1514 1515 1516 1516 1514
1502 1505 1508 1512 1517 1522 1527 1530 1531 1534 1536 1537 1539 1542 1543 1544 1545 1545 1546 1546 1545 1547 1546 1545 1545 1545 1544 1542 1541 1541 1540 1538 1535 1532 1528 1523 1520 1517 1515 1515 1515 1515 1513
1498 1500 1503 1508 1512 1517 1521 1524 1527 1529 1531 1533 1535 1537 1539 1540 1541 1542 1543 1544 1544 1544 1544 1545 1545 1544 1544 1542 1541 1540 1540 1539 1536 1534 1529 1525 1522 1519 1516 1515 1514 1515 1514
1492 1496 1499 1503 1507 1511 1514 1518 1522 1524 1527 1529 1532 1532 1535 1537 1538 1539 1541 1540 1540 1541 1543 1544 1544 1545 1545 1544 1543 1542 1540 1539 1539 1536 1532 1528 1524 1521 1518 1516 1515 1515 1514
1489 1491 1494 1500 1504 1506 1510 1513 1516 1519 1522 1525 1528 1528 1530 1532 1534 1535 1536 1537 1538 1538 1540 1542 1543 1544 1546 1545 1544 1544 1542 1541 1540 1538 1535 1531 1526 1523 1521 1519 1517 1515 1516
1484 1485 1489 1494 1499 1503 1506 1509 1511 1514 1517 1520 1523 1523 1525 1527 1529 1531 1533 1535 1536 1537 1538 1539 1541 1543 1546 1548 1546 1545 1545 1542 1540 1540 1538 1535 1530 1527 1525 1524 1522 1519 1518
1483 1484 1485 1488 1492 1496 1499 1502 1506 1509 1511 1514 1516 1517 1519 1522 1524 1526 1528 1532 1532 1533 1535 1537 1539 1541 1542 1544 1546 1546 1545 1543 1541 1541 1541 1540 1536 1532 1529 1529 1526 1523 1521
1484 1484 1482 1483 1487 1491 1492 1496 1499 1503 1505 1507 1509 1510 1514 1516 1519 1522 1524 1527 1529 1531 1533 1535 1537 1539 1541 1544 1544 1546 1545 1545 1544 1542 1543 1542 1539 1536 1534 1533 1530 1530 1528
1481 1476 1478 1481 1484 1490 1494 1491 1493 1496 1499 1501 1502 1505 1508 1511 1514 1516 1518 1521 1524 1527 1528 1533 1536 1539 1541 1543 1544 1544 1545 1545 1546 1544 1543 1543 1543 1542 1539 1538 1537 1537 1535
1477 1474 1472 1483 1483 1480 1491 1487 1491 1490 1493 1495 1497 1500 1502 1504 1508 1512 1516 1519 1522 1524 1525 1527 1530 1534 1537 1540 1542 1543 1545 1545 1547 1546 1543 1544 1546 1546 1544 1544 1544 1543 1543
1462 1457 1463 1469 1478 1483 1483 1482 1486 1486 1487 1490 1493 1497 1499 1502 1506 1510 1513 1518 1521 1525 1526 1527 1529 1529 1534 1537 1539 1542 1543 1545 1545 1547 1545 1544 1546 1548 1547 1546 1547 1549 1550
1464 1474 1478 1471 1475 1477 1486 1472 1485 1481 1481 1490 1493 1493 1496 1499 1502 1507 1511 1515 1519 1520 1523 1527 1527 1530 1531 1534 1536 1536 1539 1543 1544 1545 1545 1545 1546 1547 1549 1551 1551 1551 1553
1480 1481 1480 1480 1479 1484 1459 1461 1474 1476 1477 1483 1487 1491 1490 1493 1499 1499 1505 1509 1511 1515 1517 1522 1525 1527 1530 1531 1533 1535 1536 1538 1542 1543 1547 1546 1547 1549 1550 1552 1555 1556 1556
1484 1484 1483 1480 1479 1478 1476 1472 1473 1475 1479 1481 1479 1480 1479 1483 1484 1495 1501 1505 1506 1509 1516 1515 1520 1525 1527 1528 1530 1532 1533 1535 1540 1542 1544 1546 1545 1548 1549 1551 1553 1557 1558
1484 1483 1481 1478 1476 1475 1474 1475 1474 1477 1480 1478 1479 1480 1483 1484 1482 1476 1490 1497 1497 1497 1510 1509 1515 1520 1523 1527 1527 1530 1532 1533 1537 1541 1543 1546 1547 1547 1550 1551 1552 1554 1558
1484 1484 1484 1480 1476 1475 1475 1478 1478 1479 1479 1479 1480 1481 1484 1487 1485 1484 1487 1492 1492 1494 1502 1505 1511 1517 1520 1524 1525 1527 1530 1531 1535 1539 1542 1545 1546 1547 1548 1548 1551 1554 1557
1482 1480 1481 1480 1480 1478 1478 1477 1476 1478 1476 1477 1478 1479 1481 1482 1483 1481 1483 1484 1490 1494 1497 1501 1505 1513 1517 1520 1523 1524 1527 1528 1532 1537 1541 1543 1545 1546 1547 1548 1550 1553 1554
1482 1478 1477 1477 1478 1477 1476 1475 1475 1476 1476 1475 1475 1477 1474 1476 1477 1477 1480 1484 1488 1490 1491 1488 1498 1507 1512 1516 1519 1522 1524 1527 1530 1534 1538 1541 1542 1544 1545 1547 1549 1551 1555
1481 1480 1477 1474 1475 1476 1477 1477 1477 1476 1474 1475 1477 1475 1474 1477 1477 1476 1479 1482 1484 1486 1491 1492 1494 1499 1506 1511 1515 1520 1522 1524 1527 1531 1535 1538 1540 1541 1543 1545 1547 1548 1551
1483 1481 1478 1478 1479 1478 1476 1475 1476 1481 1480 1476 1476 1478 1478 1477 1477 1480 1482 1484 1485 1485 1488 1490 1496 1502 1506 1509 1513 1515 1519 1522 1525 1528 1532 1535 1538 1539 1541 1542 1545 1548 1549
1489 1485 1482 1483 1481 1481 1482 1481 1480 1477 1478 1478 1479 1480 1479 1479 1479 1481 1483 1486 1487 1489 1491 1493 1498 1501 1503 1507 1509 1512 1514 1519 1522 1525 1529 1531 1533 1535 1538 1540 1541 1542 1545